Regional Weather Roundup
Issued by NWS

Home | Current Version | Previous Version | Text Only | Print | Product List | Glossary Off
Versions: 1 2 3 4 5 6 7 8 9 10 11 12 13 14 15 16 17 18 19 20 21 22 23 24 25 26 27 28 29 30 31 32 33 34 35 36 37 38 39 40 41 42 43 44 45 46 47 48 49 50

000
ASUS43 KBIS 021302
RWRND

NORTH DAKOTA REGIONAL WEATHER ROUNDUP
NATIONAL WEATHER SERVICE BISMARCK ND
800 AM CDT MON MAY 02 2016

NOTE: "FAIR" INDICATES FEW OR NO CLOUDS BELOW 12,000 FEET WITH NO
SIGNIFICANT WEATHER AND/OR OBSTRUCTIONS TO VISIBILITY.


NDZ001>003-009>011-017-021400-
NORTHWEST NORTH DAKOTA

CITY           SKY/WX    TMP DP  RH WIND       PRES   REMARKS
WILLISTON      SUNNY     52  35  52 W17       30.03S
MINOT          MOSUNNY   55  38  52 CALM      29.97S
$$

NDZ018>021-031>035-040>046-021400-
SOUTHWEST NORTH DAKOTA

CITY           SKY/WX    TMP DP  RH WIND       PRES   REMARKS
BISMARCK       CLOUDY    44  40  85 CALM      30.04F
DICKINSON      CLOUDY    46  33  60 W15       30.05S
GARRISON         N/A     50  40  68 W12       29.99F
HETTINGER ARPT CLOUDY    44  34  67 W13       30.09F
$$

NDZ004>008-012>016-024-026-027-054-021400-
NORTHEAST NORTH DAKOTA

CITY           SKY/WX    TMP DP  RH WIND       PRES   REMARKS
GRAND FORKS    PTSUNNY   53  32  44 S6        30.03S
DEVILS LAKE    CLOUDY    52  38  58 SW6       30.02S
$$

NDZ022-023-025-028>030-036>039-047>053-021400-
SOUTHEAST NORTH DAKOTA

CITY           SKY/WX    TMP DP  RH WIND       PRES   REMARKS
FARGO          SUNNY     50  32  50 S3        30.06S
JAMESTOWN      CLOUDY    50  37  61 W8        30.04S
$$





USA.gov is the U.S. government's official web portal to all federal, state and local government web resources and services.